sat.trackr.live / text

‹ back to catalog

STARLINK-36535

NORAD 67986 · 2026-039A

PAYLOAD ACTIVE UNKNOWN

§ Identity

Operator
Country
US
Launch date
2026-02-27
Launch site
AFETR
Launch vehicle
Mass (kg)
RCS (m²)

Purposes: comms

External: N2YO · Heavens-Above · Gunter

§ Orbital elements

Epoch: 2026-05-24T21:29:25.741248Z

Period
94.27 min
Inclination
43.0016°
Eccentricity
0.0001140
Mean motion
15.27598848 rev/d
Perigee alt
482.2 km
Apogee alt
483.8 km
Semi-major
6,861.1 km
B*
5.2054e-4
RAAN
338.9492°
Arg perigee
263.6859°
Mean anomaly
96.3863°
Rev number
1,335

§ Raw data

STARLINK-365351 67986U 26039A   26144.89543682  .00014097  00000+0  52054-3 0  99972 67986  43.0016 338.9492 0001140 263.6859  96.3863 15.27598848 13359

JSON: /api/v1/satellites/67986 · /tle

For live sub-satellite position, see the globe view (requires WebGL).

§ Visibility from observer

Set your observer location to see the next 7 days of passes ≥ 10°. The values pass through the URL so the page stays shareable.

No JS? Fill the form by hand. The geolocation button needs JavaScript.